Flag for United Kingdom Weather past 2 weeks in St. Peter Port, Guernsey, United Kingdom

Now
63 °F

Partly sunny.


Feels Like: 63 °F
Forecast: 61 / 70 °F
Wind: 2 mph from North

Location: Guernsey Airport

Current Time: Jul 31, 2014 at 9:23:53 AM

Latest Report: Jul 31, 2014 at 8:50 AM


Visibility: N/A

Pressure: 30.07 "Hg

Humidity: 83%

Dew point: 57 °F

Location of St. Peter PortLocation

Historic Weather in St. Peter Port — Graph

°F

St. Peter Port temperature yesterday

Maximum temperature yesterday: 68 °F (at 11:50 AM)
Minimum temperature yesterday: 61 °F (at 3:50 AM)
Average temperature yesterday: 65 °F

Past Weeks' High & Low Weather Summary

 TemperatureHumidityPressure
High75 °F (Jul 24, 3:20 PM)100% (Jul 16, 8:20 AM)30.21 "Hg (Jul 16, 8:20 AM)
Low59 °F (Jul 17, 3:50 AM)56% (Jul 30, 2:20 PM)29.74 "Hg (Jul 19, 4:50 AM)
Average66 °F83%30.04 "Hg
* Reported Jul 16 8:20 AM — Jul 31 8:20 AM, St. Peter Port, Weather by CustomWeather, © 2014

Note: Actual official high and low records may vary slightly from our data, if they occured in-between our weather recording intervals... More about our weather records

Advertising

St. Peter Port weather history for previous 24 hours

 ConditionsComfort  
Time TempWeatherWind HumidityBarometerVisibility
8:20 AM
Jul 31
63 °FPartly sunny.No wind83%30.04 "HgN/A
7:50 AM63 °FPartly sunny.No wind83%30.04 "HgN/A
7:20 AM61 °FPartly sunny.No wind88%30.04 "HgN/A
6:50 AM61 °FPartly sunny.No wind94%30.04 "HgN/A
6:20 AM59 °FPassing clouds.2 mph100%30.07 "HgN/A
5:50 AM59 °FPassing clouds.2 mph94%30.07 "HgN/A
5:20 AM59 °FPassing clouds.2 mph94%30.07 "HgN/A
4:50 AM59 °FPassing clouds.3 mph94%30.07 "HgN/A
4:20 AM59 °FPassing clouds.3 mph94%30.07 "HgN/A
3:50 AM59 °FClear.6 mph94%30.04 "Hg10 mi
8:50 PM
Jul 30
63 °FSunny.6 mph88%30.07 "Hg10 mi
8:20 PM64 °FSunny.7 mph83%30.07 "Hg10 mi
7:50 PM64 °FSunny.8 mph83%30.07 "Hg10 mi
7:20 PM66 °FSunny.9 mph73%30.07 "Hg10 mi
6:50 PM66 °FSunny.10 mph73%30.07 "Hg10 mi
6:20 PM66 °FSunny.12 mph73%30.07 "Hg10 mi
5:50 PM66 °FSunny.12 mph68%30.07 "Hg10 mi
5:20 PM68 °FSunny.12 mph64%30.09 "Hg10 mi
4:50 PM68 °FPassing clouds.10 mph64%30.09 "HgN/A
4:20 PM68 °FSunny.12 mph56%30.09 "Hg10 mi
3:50 PM68 °FPassing clouds.10 mph60%30.09 "HgN/A
3:20 PM68 °FPassing clouds.8 mph60%30.09 "HgN/A
2:50 PM68 °FPassing clouds.8 mph56%30.09 "HgN/A
2:20 PM68 °FPassing clouds.9 mph56%30.09 "HgN/A
1:50 PM68 °FPassing clouds.9 mph60%30.09 "HgN/A
1:20 PM68 °FPassing clouds.9 mph60%30.09 "HgN/A
12:50 PM68 °FPassing clouds.10 mph64%30.09 "HgN/A
12:20 PM68 °FPassing clouds.8 mph64%30.09 "HgN/A
11:50 AM68 °FPassing clouds.8 mph69%30.09 "HgN/A
11:20 AM66 °FPassing clouds.9 mph73%30.09 "HgN/A
10:50 AM64 °FPassing clouds.9 mph78%30.09 "HgN/A
10:20 AM64 °FPassing clouds.10 mph78%30.09 "HgN/A
9:50 AM64 °FPassing clouds.10 mph83%30.07 "HgN/A
9:20 AM64 °FPassing clouds.10 mph83%30.07 "HgN/A
Weather by CustomWeather, © 2014

See weather overviewHow to use our weather pages